Fergus Falls, MN

3:16 PM CST on November 22, 2019 (GMT -0600)
Fergus Falls Municipal-Mickelson

Weather History for KFFM - September, 2019

Change the Weather History Date:

Sunday, September 22, 2019

  Actual Average Record
Temperature  
Mean Temperature 58 °F -  
Max Temperature 66 °F 65 °F 87 °F (2017)
Min Temperature 50 °F 42 °F 22 °F (1974)
Degree Days  
Heating Degree Days 7    
Growing Degree Days 8 (Base 50)    
Moisture  
Dew Point 51 °F    
Average Humidity 80    
Maximum Humidity 100    
Minimum Humidity 52    
Precipitation  
Precipitation 0.00 in - - ()
Sea Level Pressure  
Sea Level Pressure 29.88 in    
Wind  
Wind Speed 5 mph ()    
Max Wind Speed 12 mph    
Max Gust Speed -    
Visibility 10.0 miles    
Events      
Averages and records for this station are not official NWS values.
T = Trace of Precipitation, MM = Missing Value Source: Averaged Metar Reports

Daily Weather History Graph

Daily Weather History Graph

Search for Another Location

Airport or City:

Astronomy

Sep. 22, 2019 Rise Set
Actual Time 7:11 AM CDT 7:22 PM CDT
Civil Twilight 6:41 AM CDT 7:52 PM CDT
Nautical Twilight 6:06 AM CDT 8:27 PM CDT
Astronomical Twilight 5:29 AM CDT 9:03 PM CDT
Moon No Moon Rise 3:40 PM CDT
Length of Visible Light 13h 11m
Length of Day
12h 11m
Last Quarter, 44% of the Moon is Illuminated
Sep 22
Last Quarter
Sep 28
New
Oct 5
First Quarter
Oct 13
Full
Oct 21
Last Quarter

Hourly Weather History & Observations

Time (CDT) Temp. Dew Point Humidity Pressure Visibility Wind Dir Wind Speed Gust Speed Precip Events Conditions
12:15 AM 59.0 °F 55.4 °F 88% 29.82 in 10.0 mi West 6.9 mph - N/A   Scattered Clouds
12:20 AM 59.0 °F 55.4 °F 88% 29.82 in 10.0 mi West 6.9 mph - N/A   Scattered Clouds
12:37 AM 59.0 °F 57.2 °F 94% 29.82 in 10.0 mi West 6.9 mph - N/A   Mostly Cloudy
12:55 AM 59.0 °F 55.4 °F 88% 29.83 in 10.0 mi West 11.5 mph - N/A   Scattered Clouds
1:15 AM 59.0 °F 55.4 °F 88% 29.84 in 10.0 mi WNW 9.2 mph - N/A   Scattered Clouds
1:16 AM 59.0 °F 55.4 °F 88% 29.84 in 10.0 mi WNW 9.2 mph - N/A   Scattered Clouds
1:35 AM 57.2 °F 53.6 °F 88% 29.85 in 10.0 mi NW 9.2 mph - N/A   Clear
1:36 AM 57.2 °F 53.6 °F 88% 29.85 in 10.0 mi NW 10.4 mph - N/A   Clear
1:59 AM 57.2 °F 53.6 °F 88% 29.84 in 10.0 mi NW 6.9 mph - N/A   Scattered Clouds
2:16 AM 55.4 °F 53.6 °F 94% 29.84 in 10.0 mi NW 8.1 mph - N/A   Scattered Clouds
2:36 AM 55.4 °F 51.8 °F 88% 29.85 in 10.0 mi NW 6.9 mph - N/A   Clear
2:55 AM 53.6 °F 51.8 °F 94% 29.85 in 10.0 mi NW 4.6 mph - N/A   Clear
3:15 AM 53.6 °F 51.8 °F 94% 29.86 in 10.0 mi WNW 4.6 mph - N/A   Clear
3:19 AM 53.6 °F 51.8 °F 94% 29.86 in 10.0 mi NW 4.6 mph - N/A   Clear
3:37 AM 51.8 °F 51.8 °F 100% 29.87 in 10.0 mi WNW 4.6 mph - N/A   Scattered Clouds
3:55 AM 53.6 °F 51.8 °F 94% 29.87 in 10.0 mi WNW 5.8 mph - N/A   Scattered Clouds
4:15 AM 51.8 °F 51.8 °F 100% 29.87 in 10.0 mi NW 4.6 mph - N/A   Clear
4:16 AM 51.8 °F 51.8 °F 100% 29.87 in 10.0 mi NNW 5.8 mph - N/A   Clear
4:35 AM 51.8 °F 51.8 °F 100% 29.87 in 10.0 mi NW 5.8 mph - N/A   Clear
4:36 AM 51.8 °F 51.8 °F 100% 29.87 in 10.0 mi NW 5.8 mph - N/A   Clear
4:58 AM 51.8 °F 51.8 °F 100% 29.87 in 10.0 mi NW 4.6 mph - N/A   Clear
5:15 AM 51.8 °F 51.8 °F 100% 29.87 in 10.0 mi NW 4.6 mph - N/A   Clear
5:35 AM 51.8 °F 51.8 °F 100% 29.88 in 10.0 mi WNW 4.6 mph - N/A   Clear
5:36 AM 51.8 °F 51.8 °F 100% 29.88 in 10.0 mi WNW 4.6 mph - N/A   Clear
5:55 AM 51.8 °F 51.8 °F 100% 29.89 in 10.0 mi WNW 5.8 mph - N/A   Clear
5:56 AM 51.8 °F 51.8 °F 100% 29.89 in 10.0 mi WNW 5.8 mph - N/A   Clear
6:19 AM 51.8 °F 51.8 °F 100% 29.89 in 10.0 mi NW 6.9 mph - N/A   Clear
6:36 AM 51.8 °F 51.8 °F 100% 29.88 in 10.0 mi NW 8.1 mph - N/A   Clear
6:56 AM 51.8 °F 51.8 °F 100% 29.87 in 10.0 mi NNW 5.8 mph - N/A   Clear
7:15 AM 50.0 °F 50.0 °F 100% 29.90 in 10.0 mi NW 3.5 mph - N/A   Clear
7:16 AM 50.0 °F 50.0 °F 100% 29.90 in 10.0 mi Calm Calm - N/A   Clear
7:35 AM 50.0 °F 50.0 °F 100% 29.89 in 10.0 mi NW 4.6 mph - N/A   Clear
7:39 AM 50.0 °F 50.0 °F 100% 29.90 in 10.0 mi NW 3.5 mph - N/A   Clear
7:57 AM 51.8 °F 51.8 °F 100% 29.90 in 10.0 mi Calm Calm - N/A   Clear
8:15 AM 51.8 °F 51.8 °F 100% 29.91 in 10.0 mi Calm Calm - N/A   Clear
8:36 AM 51.8 °F 51.8 °F 100% 29.91 in 10.0 mi Calm Calm - N/A   Clear
8:55 AM 53.6 °F 51.8 °F 94% 29.91 in 10.0 mi West 5.8 mph - N/A   Scattered Clouds
8:56 AM 53.6 °F 51.8 °F 94% 29.91 in 10.0 mi WNW 5.8 mph - N/A   Scattered Clouds
9:18 AM 53.6 °F 51.8 °F 94% 29.91 in 10.0 mi WNW 6.9 mph - N/A   Scattered Clouds
9:36 AM 53.6 °F 51.8 °F 94% 29.91 in 10.0 mi WNW 4.6 mph - N/A   Scattered Clouds
9:56 AM 53.6 °F 51.8 °F 94% 29.90 in 10.0 mi NW 4.6 mph - N/A   Scattered Clouds
10:15 AM 55.4 °F 51.8 °F 88% 29.91 in 10.0 mi West 4.6 mph - N/A   Clear
10:16 AM 55.4 °F 51.8 °F 88% 29.91 in 10.0 mi West 4.6 mph - N/A   Clear
10:35 AM 55.4 °F 51.8 °F 88% 29.89 in 10.0 mi WNW 4.6 mph - N/A   Clear
10:39 AM 55.4 °F 51.8 °F 88% 29.89 in 10.0 mi WNW 3.5 mph - N/A   Clear
10:58 AM 55.4 °F 51.8 °F 88% 29.90 in 10.0 mi WNW 3.5 mph - N/A   Clear
11:15 AM 57.2 °F 51.8 °F 82% 29.90 in 10.0 mi West 3.5 mph - N/A   Clear
11:35 AM 59.0 °F 51.8 °F 77% 29.90 in 10.0 mi West 3.5 mph - N/A   Clear
11:36 AM 59.0 °F 51.8 °F 77% 29.89 in 10.0 mi Calm Calm - N/A   Clear
11:55 AM 59.0 °F 51.8 °F 77% 29.89 in 10.0 mi West 4.6 mph - N/A   Clear
12:18 PM 60.8 °F 51.8 °F 72% 29.90 in 10.0 mi West 8.1 mph - N/A   Clear
12:36 PM 62.6 °F 53.6 °F 72% 29.89 in 10.0 mi West 5.8 mph - N/A   Clear
12:56 PM 62.6 °F 51.8 °F 68% 29.88 in 10.0 mi WNW 4.6 mph - N/A   Clear
1:15 PM 64.4 °F 51.8 °F 64% 29.88 in 10.0 mi WNW 8.1 mph - N/A   Clear
1:16 PM 64.4 °F 51.8 °F 64% 29.88 in 10.0 mi WNW 5.8 mph - N/A   Clear
1:35 PM 64.4 °F 53.6 °F 68% 29.88 in 10.0 mi West 4.6 mph - N/A   Clear
1:39 PM 64.4 °F 51.8 °F 64% 29.88 in 10.0 mi WNW 11.5 mph - N/A   Clear
1:58 PM 66.2 °F 51.8 °F 60% 29.87 in 10.0 mi WNW 8.1 mph - N/A   Scattered Clouds
2:15 PM 64.4 °F 50.0 °F 59% 29.87 in 10.0 mi NW 8.1 mph - N/A   Clear
2:35 PM 66.2 °F 50.0 °F 56% 29.86 in 10.0 mi West 9.2 mph - N/A   Scattered Clouds
2:36 PM 66.2 °F 50.0 °F 56% 29.86 in 10.0 mi West 9.2 mph - N/A   Scattered Clouds
2:55 PM 66.2 °F 48.2 °F 52% 29.86 in 10.0 mi WNW 8.1 mph - N/A   Mostly Cloudy
2:56 PM 66.2 °F 48.2 °F 52% 29.86 in 10.0 mi WNW 9.2 mph - N/A   Mostly Cloudy
3:18 PM 66.2 °F 50.0 °F 56% 29.85 in 10.0 mi NW 10.4 mph - N/A   Mostly Cloudy
3:36 PM 64.4 °F 48.2 °F 56% 29.85 in 10.0 mi NNW 8.1 mph - N/A   Mostly Cloudy
3:56 PM 66.2 °F 48.2 °F 52% 29.84 in 10.0 mi NNW 8.1 mph - N/A   Mostly Cloudy
4:15 PM 66.2 °F 48.2 °F 52% 29.84 in 10.0 mi NW 10.4 mph - N/A   Scattered Clouds
4:35 PM 66.2 °F 48.2 °F 52% 29.84 in 10.0 mi WNW 8.1 mph - N/A   Scattered Clouds
4:57 PM 66.2 °F 48.2 °F 52% 29.85 in 10.0 mi NNW 6.9 mph - N/A   Mostly Cloudy
5:15 PM 66.2 °F 48.2 °F 52% 29.85 in 10.0 mi NW 4.6 mph - N/A   Scattered Clouds
5:35 PM 66.2 °F 48.2 °F 52% 29.85 in 10.0 mi NW 6.9 mph - N/A   Scattered Clouds
5:55 PM 64.4 °F 48.2 °F 56% 29.86 in 10.0 mi NW 4.6 mph - N/A   Scattered Clouds
5:56 PM 64.4 °F 48.2 °F 56% 29.86 in 10.0 mi NW 4.6 mph - N/A   Scattered Clouds
6:18 PM 64.4 °F 50.0 °F 59% 29.86 in 10.0 mi WNW 3.5 mph - N/A   Clear
6:37 PM 64.4 °F 50.0 °F 59% 29.86 in 10.0 mi WNW 4.6 mph - N/A   Clear
6:55 PM 62.6 °F 50.0 °F 63% 29.86 in 10.0 mi NW 4.6 mph - N/A   Clear
6:56 PM 62.6 °F 50.0 °F 63% 29.86 in 10.0 mi NW 4.6 mph - N/A   Clear
7:15 PM 62.6 °F 50.0 °F 63% 29.86 in 10.0 mi Calm Calm - N/A   Clear
7:16 PM 62.6 °F 50.0 °F 63% 29.86 in 10.0 mi Calm Calm - N/A   Clear
7:35 PM 60.8 °F 50.0 °F 68% 29.86 in 10.0 mi Calm Calm - N/A   Clear
7:39 PM 60.8 °F 50.0 °F 68% 29.87 in 10.0 mi Calm Calm - N/A   Clear
7:57 PM 60.8 °F 48.2 °F 63% 29.87 in 10.0 mi Calm Calm - N/A   Clear
8:16 PM 59.0 °F 48.2 °F 67% 29.87 in 10.0 mi Calm Calm - N/A   Clear
8:35 PM 59.0 °F 48.2 °F 67% 29.88 in 10.0 mi Calm Calm - N/A   Clear
8:36 PM 59.0 °F 48.2 °F 67% 29.88 in 10.0 mi Calm Calm - N/A   Clear
8:55 PM 59.0 °F 48.2 °F 67% 29.89 in 10.0 mi Calm Calm - N/A   Clear
8:56 PM 59.0 °F 48.2 °F 67% 29.89 in 10.0 mi Calm Calm - N/A   Clear
9:19 PM 57.2 °F 48.2 °F 72% 29.89 in 10.0 mi Calm Calm - N/A   Clear
9:36 PM 57.2 °F 50.0 °F 77% 29.89 in 10.0 mi Calm Calm - N/A   Scattered Clouds
9:56 PM 57.2 °F 48.2 °F 72% 29.90 in 10.0 mi Calm Calm - N/A   Scattered Clouds
10:15 PM 55.4 °F 50.0 °F 82% 29.90 in 10.0 mi South 3.5 mph - N/A   Scattered Clouds
10:16 PM 55.4 °F 50.0 °F 82% 29.90 in 10.0 mi South 3.5 mph - N/A   Scattered Clouds
10:35 PM 55.4 °F 51.8 °F 88% 29.90 in 10.0 mi South 3.5 mph - N/A   Scattered Clouds
10:39 PM 55.4 °F 51.8 °F 88% 29.90 in 10.0 mi South 4.6 mph - N/A   Scattered Clouds
10:57 PM 55.4 °F 51.8 °F 88% 29.90 in 10.0 mi South 4.6 mph - N/A   Mostly Cloudy
11:15 PM 55.4 °F 51.8 °F 88% 29.90 in 10.0 mi South 3.5 mph - N/A   Mostly Cloudy
11:35 PM 57.2 °F 51.8 °F 82% 29.90 in 10.0 mi Calm Calm - N/A   Mostly Cloudy
11:36 PM 57.2 °F 51.8 °F 82% 29.90 in 10.0 mi South 3.5 mph - N/A   Mostly Cloudy
11:55 PM 55.4 °F 50.0 °F 82% 29.90 in 10.0 mi SSW 3.5 mph - N/A   Mostly Cloudy